Other Surface Observations
Issued by NWS Tucson, AZ

Home | Current Version | Previous Version | Text Only | Print | Product List | Glossary On
Versions: 1 2 3 4 5 6 7 8 9 10 11 12 13 14 15 16 17 18 19 20 21 22 23 24 25 26 27 28 29 30 31 32 33 34 35 36 37 38 39 40 41 42 43 44 45 46 47 48 49 50
000
SXUS55 KTWC 252015
OSOTWC

WEATHER ROUNDUP FOR SOUTHEAST ARIZONA
NATIONAL WEATHER SERVICE TUCSON AZ
115 PM MST TUE APR 25 2017

AZZ504>506-514-252115-
LOCATION       SKY/WX    TMP DP  RH WIND       PRES   REMARKS
TUCSON         SUNNY     81  38  21 W12G25    29.76F
DAVIS-MONTHAN  MOSUNNY   80  39  23 W17G29    29.74F
CHILDRENS PARK N/A      N/A N/A  26 W11               PIMA CO DEQ
ALVERNON/22ND  N/A       77 N/A N/A W11               PIMA CO DEQ
CHERRY/GLENN   N/A      N/A N/A N/A N/A               PIMA CO DEQ
TANGERINE      N/A       76 N/A N/A W12               PIMA CO DEQ
CONTL RANCH    N/A      N/A N/A N/A N/A               PIMA CO DEQ
GRANT/1ST      N/A       77  37  24 W12               PIMA CO DEQ
CRAYCROFT/22ND N/A       77  37  24 W13               PIMA CO DEQ
GOLFLINKS/KOLB N/A      N/A N/A N/A N/A               PIMA CO DEQ
AJO/12TH       N/A       79  39  24 W12               PIMA CO DEQ
FAIRGROUNDS    N/A       76 N/A N/A W16               PIMA CO DEQ
SAGUARO        N/A       79  40  25 W11G23            *SABINO CYN
SAN CARLOS     N/A       72  43  35 SW10G17           *SAN CARLOS
GREEN VALLEY   N/A       78  37  23 SW14              PIMA CO DEQ
HORSE CAMP CYN N/A       69  42  37 SW20G33           *ARAVAIPA CYN
RINCON MTNS    NOT AVBL
$$

AZZ509>511-252115-
LOCATION       SKY/WX    TMP DP  RH WIND       PRES   REMARKS
SAFFORD        SUNNY     80  36  20 W25G44    29.66F
STRAY HORSE    N/A       49  34  55 N/A               *
TRAIL CABIN    N/A       60  38  44 NW10G23           *N OF GRANVILLE
BLACK HILLS    NOT AVBL
DRY LAKE       N/A       53  36  53 W9G17             *NATANES MTNS
NOON CREEK     N/A       72  34  25 SW9G25            *PINALENO MTNS
COLUMBINE      N/A       46  34  62 SW12G23           *PINALENO MTNS
GUTHRIE        N/A       61  35  37 W17G37            *SW OF GUTHRIE
$$

AZZ502-503-513-252115-
LOCATION       SKY/WX    TMP DP  RH WIND       PRES   REMARKS
NOGALES        MOSUNNY   74  36  25 SW17G25   29.83F
SELLS          N/A       78  44  30 NE12G21           *
SASABE         N/A       75  39  27 SW16G24           *ALTAR VLY
HOPKINS        N/A       65  34  31 W13G22            *SANTA RITA MTNS
CARR CYN       N/A       72  31  22 SW4G22            *W OF HEREFORD
$$

AZZ507-508-512-252115-
LOCATION       SKY/WX    TMP DP  RH WIND       PRES   REMARKS
SIERRA VISTA   MOSUNNY   75  31  20 SW24G35   29.83S
DOUGLAS        SUNNY     79  27  14 W28G38    29.78F
EMPIRE MTNS    NOT AVBL
MULESHOE RANCH N/A       71  35  27 W13G30            *PRESERVE
HEADQUARTERS   NOT AVBL
$$

.............................NOTES.............................
THIS IS AN AUTOMATED COLLECTIVE WITH MINIMAL QUALITY CONTROL.
PIMA CO DEQ SITES HAVE NONSTANDARD WIND SENSOR HEIGHTS.
PIMA CO DEQ SITES DO NOT REPORT WIND GUSTS.
* INDICATES WIND SENSORS LOCATED AT 20 FEET INSTEAD OF 33 FEET.
..............................KEY..............................
SKY/WX - SKY CONDITION/WEATHER
TMP    - TEMPERATURE IN FAHRENHEIT
DP     - DEWPOINT IN FAHRENHEIT
RH     - RELATIVE HUMIDITY IN PERCENT
WIND   - DIRECTION AND SPEED IN MILES PER HOUR (MPH)
VRB    - VARIABLE WIND DIRECTION
PRES   - MEAN SEA LEVEL PRESSURE IN INCHES OF MERCURY
         F - FALLING PRESSURE   R - RISING PRESSURE
         S - STEADY PRESSURE
VSB    - VISIBILITY IN MILES
HX     - HEAT INDEX IN FAHRENHEIT
WCI    - WIND CHILL INDEX IN FAHRENHEIT
N/A    - NOT AVAILABLE
AFB    - AIR FORCE BASE
         DAVIS-MONTHAN IS DAVIS-MONTHAN AIR FORCE BASE
CYN    - CANYON
MTNS   - MOUNTAINS
NCA    - NATIONAL CONSERVATION AREA
NR     - NEAR
VLY    - VALLEY
CONTL  - CONTINENTAL
PIMA CO DEQ - PIMA COUNTY DEPT OF ENVIRONMENTAL QUALITY



USA.gov is the U.S. government's official web portal to all federal, state and local government web resources and services.